Elkins, WV

5:31 PM EDT on August 19, 2017 (GMT -0400)
Elkins-Randolph County

Weather History for KEKN - May, 2014

Change the Weather History Date:

Tuesday, May 13, 2014

  Actual Average Record
Temperature  
Mean Temperature 72 °F 57 °F  
Max Temperature 87 °F 70 °F 87 °F (2014)
Min Temperature 56 °F 45 °F 28 °F (1938)
Degree Days  
Heating Degree Days 0 8  
Month to date heating degree days 75 125  
Since 1 July heating degree days 5882 5688  
Cooling Degree Days 7 0  
Month to date cooling degree days 14 0  
Year to date cooling degree days 16 3  
Growing Degree Days 21 (Base 50)    
Moisture  
Dew Point 58 °F    
Average Humidity 72    
Maximum Humidity 100    
Minimum Humidity 44    
Precipitation  
Precipitation 0.41 in 0.17 in 1.44 in (1955)
Month to date precipitation 0.89 2.07  
Year to date precipitation 12.28 16.16  
Snow  
Snow 0.00 in - - ()
Month to date snowfall 0.0  
Since 1 September snowfall 92.3  
Snow Depth 0.00 in    
Sea Level Pressure  
Sea Level Pressure 30.16 in    
Wind  
Wind Speed 3 mph (WNW)    
Max Wind Speed 23 mph    
Max Gust Speed 30 mph    
Visibility 6 miles    
Events Fog , Rain    
T = Trace of Precipitation, MM = Missing Value Source: NWS Daily Summary

Daily Weather History Graph

Daily Weather History Graph

Search for Another Location

Airport or City:

Trip Planner

Search our weather history database for the weather conditions in past years. The results will help you decide how hot, cold, wet, or windy it might be!

Date:

Astronomy

May. 13, 2014 Rise Set
Actual Time 6:08 AM EDT 8:23 PM EDT
Civil Twilight 5:38 AM EDT 8:53 PM EDT
Nautical Twilight 5:02 AM EDT 9:30 PM EDT
Astronomical Twilight 4:22 AM EDT 10:10 PM EDT
Moon 7:23 PM EDT (5/13) 5:23 AM EDT (5/13)
Length of Visible Light 15h 14m
Length of Day
14h 14m
Waxing Gibbous, 98% of the Moon is Illuminated
May 13
Waxing Gibbous
May 14
Full
May 21
Last Quarter
May 28
New
Jun 5
First Quarter

Hourly Weather History & Observations

Time (EDT) Temp. Heat Index Dew Point Humidity Pressure Visibility Wind Dir Wind Speed Gust Speed Precip Events Conditions
12:51 AM 59.0 °F - 55.9 °F 90% 30.14 in 5.0 mi Calm Calm - N/A   Clear
1:51 AM 59.0 °F - 57.0 °F 93% 30.16 in 4.0 mi Calm Calm - N/A   Clear
2:21 AM 57.9 °F - 55.9 °F 93% 30.18 in 1.8 mi Calm Calm - N/A   Partly Cloudy
2:34 AM 57.9 °F - 57.0 °F 97% 30.18 in 3.0 mi Calm Calm - N/A   Clear
2:51 AM 59.0 °F - 55.9 °F 90% 30.15 in 3.0 mi Calm Calm - N/A   Partly Cloudy
3:01 AM 59.0 °F - 55.9 °F 90% 30.17 in 1.8 mi Calm Calm - N/A   Partly Cloudy
3:10 AM 57.9 °F - 55.9 °F 93% 30.18 in 3.0 mi Calm Calm - N/A   Partly Cloudy
3:51 AM 59.0 °F - 55.9 °F 90% 30.15 in 4.0 mi Calm Calm - N/A   Scattered Clouds
4:51 AM 59.0 °F - 57.2 °F 94% 30.16 in 4.0 mi Calm Calm - N/A   Scattered Clouds
5:08 AM 57.9 °F - 55.9 °F 93% 30.17 in 1.8 mi Calm Calm - N/A   Scattered Clouds
5:14 AM 57.9 °F - 55.9 °F 93% 30.17 in 3.0 mi Calm Calm - N/A   Scattered Clouds
5:21 AM 57.9 °F - 55.9 °F 93% 30.17 in 1.8 mi Calm Calm - N/A   Scattered Clouds
5:29 AM 57.9 °F - 55.9 °F 93% 30.17 in 3.0 mi Calm Calm - N/A   Scattered Clouds
5:51 AM 57.9 °F - 55.9 °F 93% 30.14 in 4.0 mi SW 3.5 mph - N/A   Partly Cloudy
6:15 AM 55.9 °F - 54.0 °F 93% 30.17 in 2.0 mi Calm Calm - N/A   Clear
6:22 AM 55.9 °F - 54.0 °F 93% 30.17 in 1.5 mi Calm Calm - N/A   Clear
6:35 AM 55.9 °F - 54.0 °F 93% 30.18 in 0.5 mi Calm Calm - N/A Fog Fog
6:42 AM 55.9 °F - 54.0 °F 93% 30.18 in 0.2 mi Calm Calm - N/A Fog Fog
6:51 AM 55.9 °F - 55.0 °F 97% 30.16 in 0.5 mi Calm Calm - N/A Fog Fog
7:01 AM 57.9 °F - 55.9 °F 93% 30.18 in 1.2 mi Calm Calm - N/A   Partly Cloudy
7:07 AM 57.9 °F - 57.0 °F 97% 30.18 in 3.0 mi Calm Calm - N/A   Partly Cloudy
7:51 AM 64.0 °F - 59.0 °F 84% 30.17 in 7.0 mi NW 3.5 mph - N/A   Clear
8:51 AM 68.0 °F - 60.8 °F 78% 30.20 in 10.0 mi Calm Calm - N/A   Clear
9:51 AM 75.0 °F - 62.1 °F 64% 30.18 in 10.0 mi Calm Calm - N/A   Clear
10:51 AM 80.1 °F 80.9 °F 60.1 °F 50% 30.16 in 10.0 mi SSW 4.6 mph - N/A   Clear
11:51 AM 82.4 °F 82.5 °F 59.0 °F 45% 30.17 in 10.0 mi WNW 8.1 mph - N/A   Partly Cloudy
12:51 PM 82.9 °F 83.2 °F 60.1 °F 46% 30.14 in 10.0 mi NW 11.5 mph - N/A   Scattered Clouds
1:51 PM 84.9 °F 84.8 °F 60.1 °F 43% 30.12 in 10.0 mi NNW 8.1 mph - N/A   Mostly Cloudy
2:51 PM 82.0 °F 82.1 °F 59.0 °F 45% 30.10 in 10.0 mi NW 8.1 mph - N/A   Partly Cloudy
3:51 PM 78.1 °F - 57.0 °F 48% 30.13 in 10.0 mi South 8.1 mph - N/A   Scattered Clouds
4:51 PM 78.1 °F - 59.0 °F 52% 30.10 in 10.0 mi Calm Calm - N/A   Clear
5:51 PM 81.0 °F 81.6 °F 60.1 °F 49% 30.10 in 10.0 mi SSE 3.5 mph - N/A   Clear
6:51 PM 80.1 °F 81.1 °F 61.0 °F 52% 30.11 in 10.0 mi Calm Calm - N/A   Clear
7:51 PM 75.0 °F - 61.0 °F 62% 30.11 in 10.0 mi Calm Calm - N/A   Clear
8:51 PM 73.0 °F - 61.0 °F 66% 30.12 in 10.0 mi WNW 4.6 mph - N/A   Mostly Cloudy
9:24 PM 64.9 °F - 59.0 °F 81% 30.22 in 1.5 mi North 17.3 mph 26.5 mph 0.04 in Rain Heavy Rain
9:35 PM 62.1 °F - 57.9 °F 86% 30.20 in 2.0 mi NNE 8.1 mph 27.6 mph 0.41 in Rain Light Rain
9:42 PM 62.1 °F - 59.0 °F 90% 30.20 in 10.0 mi Calm Calm - 0.41 in Rain Light Rain
9:51 PM 62.1 °F - 60.1 °F 93% 30.19 in 10.0 mi Variable 3.5 mph - 0.41 in Rain Light Rain
10:51 PM 62.1 °F - 60.1 °F 93% 30.17 in 10.0 mi WNW 6.9 mph - 0.00 in   Partly Cloudy
11:51 PM 62.1 °F - 60.1 °F 93% 30.16 in 10.0 mi West 3.5 mph - N/A   Mostly Cloudy